Wind_Speed
29 29 29 29 29 29 30 29 30 29 29 28 30 32 33 33 33 34 33 33 32 32 33 33 34 35 36 37 38 39 39 39 40 40 40 40 41 41 41 41 41 41 41 40
28 29 29 30 30 31 31 31 31 31 30 29 31 32 33 34 34 33 33 33 33 33 33 33 34 35 36 37 37 38 38 38 38 39 40 40 40 40 40 40 41 41 40 40
29 29 30 31 29 30 32 32 32 32 31 32 33 34 34 34 34 34 34 34 34 34 34 34 35 35 36 36 37 37 37 38 38 37 38 38 38 38 39 39 39 39 39 39
30 30 31 29 30 30 31 32 33 34 34 34 35 35 35 35 35 35 35 35 35 34 35 35 35 36 36 36 37 37 37 37 37 36 36 37 37 37 37 38 39 39 38 38
30 31 31 29 29 30 32 32 33 34 34 35 36 36 35 36 36 36 36 36 36 36 36 36 36 36 36 37 37 37 37 36 36 37 37 37 37 38 38 37 38 38 38 38
29 30 30 29 30 31 33 34 33 34 35 35 36 35 35 36 36 37 37 37 37 36 37 37 36 36 36 36 36 36 36 36 36 36 36 36 37 37 37 37 37 37 37 36
30 31 31 29 30 31 32 32 33 33 34 34 35 35 35 35 36 37 37 37 37 37 37 36 36 36 36 36 36 36 36 36 36 35 35 36 36 36 36 36 36 36 35 35
31 32 32 31 32 32 32 33 33 34 34 35 35 35 35 36 36 36 37 36 36 36 37 36 36 36 37 36 36 36 36 36 35 35 35 34 35 35 35 35 35 35 35 35
32 32 31 32 32 32 32 33 34 34 34 34 34 34 35 36 36 37 37 36 36 36 36 36 36 36 36 36 36 35 35 35 35 34 34 34 33 33 33 33 33 33 33 33
33 32 32 32 32 32 33 33 34 34 34 35 35 35 35 35 35 35 35 36 35 35 35 35 35 34 35 35 35 34 33 33 33 33 33 32 31 31 31 30 30 31 31 31
32 32 32 32 32 32 32 33 34 34 34 35 36 35 36 36 35 36 36 35 35 34 34 34 33 33 33 33 33 32 32 31 31 32 31 31 31 31 30 30 30 30 30 31
31 31 31 31 32 32 33 33 34 34 34 34 35 35 35 35 35 35 35 34 34 33 33 33 33 32 32 31 31 31 30 30 29 30 30 30 30 30 29 29 29 29 30 30
30 30 31 31 32 33 33 34 34 34 34 34 34 34 34 33 33 34 34 34 33 32 32 32 31 31 31 30 30 29 29 28 28 28 29 29 29 29 29 30 29 29 29 29
29 30 31 32 32 32 33 32 32 32 32 33 33 33 33 32 33 33 33 33 32 32 31 31 30 30 29 29 29 29 28 28 28 27 27 27 27 27 28 28 29 29 30 30
28 29 30 31 32 32 32 32 32 31 31 31 32 32 33 33 33 33 33 32 32 31 31 30 29 29 28 29 29 29 29 28 27 26 26 26 26 26 26 26 27 28 28 29
28 29 30 31 31 32 32 31 31 31 31 31 32 32 32 32 33 32 32 31 31 30 30 30 29 29 28 28 28 28 28 28 27 27 26 26 27 27 26 26 27 27 27 28
29 30 30 30 31 31 30 30 30 30 30 30 31 31 31 31 31 31 30 30 29 29 29 29 29 28 27 27 28 28 27 28 28 28 27 27 27 27 26 26 27 27 27 27
28 29 29 29 29 28 28 27 27 28 28 28 28 28 28 28 28 28 29 28 28 28 28 28 27 27 27 26 26 26 26 26 26 26 27 27 27 27 26 26 26 26 26 26
28 28 27 27 27 27 27 27 27 27 27 26 25 25 25 25 25 26 26 26 26 26 26 26 26 25 25 25 25 25 25 25 25 25 25 26 26 26 26 25 25 25 25 25
27 26 26 26 26 26 25 25 25 25 24 24 24 24 24 23 23 23 24 23 24 24 24 24 24 24 24 24 24 24 24 24 24 24 24 25 24 24 24 24 25 25 25 25
24 24 24 24 24 24 24 23 23 23 23 23 23 22 22 22 22 21 20 20 21 22 22 22 22 23 23 23 23 23 23 23 23 23 24 24 24 23 23 24 24 24 24 24
22 22 22 23 23 23 23 23 23 23 22 22 22 21 21 21 20 20 19 19 20 20 20 21 21 22 22 23 23 22 22 23 23 24 24 24 23 23 23 23 23 23 23 23
20 21 21 22 22 22 22 22 22 22 21 21 21 21 21 21 20 19 18 19 19 19 19 20 21 21 22 22 22 21 21 22 22 22 22 22 22 22 22 22 22 22 22 22
20 21 21 21 21 21 22 22 22 21 21 21 21 20 20 20 20 19 19 19 18 18 18 18 18 18 19 19 20 20 20 20 20 20 20 20 21 21 20 20 21 21 20 20
21 21 21 20 20 20 20 20 20 19 19 19 19 19 19 19 18 18 18 18 18 18 17 17 16 16 16 17 17 18 19 19 19 19 19 19 19 19 19 19 19 19 18 18
21 21 20 20 20 20 19 19 18 18 18 18 18 18 18 17 17 17 17 16 16 16 16 16 16 16 16 16 16 16 16 17 17 17 17 17 17 17 17 18 17 17 17 17
21 21 20 20 20 20 19 18 18 18 18 18 17 17 17 16 16 16 16 16 15 15 16 16 16 16 16 16 15 15 15 15 15 15 15 15 16 16 16 16 16 16 16 15
Wind_Direction
256 256 256 255 253 254 257 261 265 267 269 269 269 268 269 271 272 273 273 272 272 273 273 273 274 274 274 273 273 274 274 275 274 274 274 272 271 270 271 271 271 271 270 270
256 256 256 256 254 255 258 261 265 267 268 269 270 271 271 271 270 270 271 272 272 272 273 273 274 274 275 275 275 275 275 275 275 273 273 272 271 271 271 271 271 271 270 269
258 257 258 258 258 258 260 261 265 268 269 270 271 272 273 272 271 270 270 270 271 273 273 273 274 275 276 277 276 276 276 275 274 273 272 272 271 271 271 271 271 271 270 270
261 260 262 263 262 262 263 264 265 267 268 270 272 272 272 272 271 270 271 271 271 272 272 273 275 276 277 277 276 275 275 275 274 273 272 271 271 270 271 271 271 270 270 270
262 263 265 265 266 267 267 267 268 269 269 270 271 272 272 272 272 271 271 271 271 272 273 273 274 275 276 277 276 275 275 275 274 273 272 272 271 270 269 270 270 270 270 270
264 266 268 269 269 270 270 271 271 271 271 272 273 273 273 273 272 273 272 272 272 273 274 274 275 275 276 277 276 275 275 275 275 274 273 272 272 271 270 269 269 269 269 270
264 266 268 271 273 273 273 274 273 274 274 275 275 274 274 274 274 274 274 274 273 274 275 275 275 276 276 277 277 275 275 275 274 273 274 274 273 272 272 272 271 271 270 269
264 266 269 271 272 273 274 274 275 276 276 276 275 275 275 275 274 274 275 274 273 274 274 275 276 276 276 277 276 275 275 275 274 274 274 274 274 273 274 273 271 269 269 270
265 267 270 272 273 274 274 274 274 275 276 276 276 276 275 275 274 275 275 275 274 275 275 275 275 275 276 276 275 275 275 274 273 273 273 273 273 274 274 273 271 269 269 270
266 267 269 271 273 275 275 275 275 276 276 276 276 276 276 275 274 275 275 274 274 274 274 274 274 274 275 275 274 274 274 274 273 272 272 272 272 273 273 272 271 269 268 268
266 267 269 270 272 274 276 277 278 279 278 277 276 275 275 275 275 275 273 272 273 273 273 273 273 274 274 275 274 273 273 273 273 272 272 272 272 273 272 271 272 270 268 268
267 269 271 271 272 274 276 278 279 279 278 278 278 277 276 275 275 275 274 273 273 272 272 273 273 273 273 273 273 272 272 273 273 273 272 272 272 272 271 271 271 269 268 269
270 271 272 273 275 277 279 280 281 280 279 278 278 277 276 276 275 275 275 273 272 271 271 272 273 272 271 272 272 271 271 272 272 272 272 273 273 272 271 271 271 270 270 271
271 272 274 275 277 279 281 282 282 281 280 279 278 276 275 274 274 275 275 273 271 270 270 271 271 270 270 271 271 270 271 271 271 270 271 272 272 273 272 270 269 269 271 272
272 274 276 277 279 281 282 283 282 280 279 278 278 277 275 274 274 274 274 273 270 268 268 269 269 269 270 270 270 270 270 270 269 269 270 271 272 273 273 272 272 270 271 273
274 276 279 280 282 282 282 281 280 280 279 278 278 277 276 275 274 273 273 272 270 268 267 267 268 268 268 269 269 269 269 267 266 267 268 270 272 273 273 273 273 272 272 274
278 279 280 281 282 282 281 280 279 280 281 281 281 279 277 275 274 274 273 272 270 268 267 267 267 267 266 267 268 269 269 268 267 267 267 269 270 271 272 273 273 273 273 275
279 281 282 282 282 282 281 280 280 281 282 283 283 281 279 278 276 274 272 270 269 268 267 267 267 266 266 266 267 268 269 269 268 268 268 268 269 270 271 272 274 275 275 276
279 280 281 281 282 283 283 282 281 282 282 282 283 282 281 280 279 276 273 271 268 267 267 266 267 267 267 267 268 269 269 268 268 267 268 269 270 270 271 272 273 274 275 276
278 279 281 283 284 285 286 286 284 283 283 283 282 281 281 280 280 278 275 272 269 267 267 267 267 267 267 268 268 269 269 268 267 267 268 270 271 271 270 271 272 273 274 276
280 281 282 284 285 285 287 288 287 286 284 282 280 279 280 280 280 280 277 273 270 268 268 268 268 268 267 267 267 269 270 268 267 268 269 271 271 270 270 271 272 272 274 276
281 282 283 284 285 284 285 286 286 285 283 282 280 279 279 280 281 280 278 275 271 270 270 270 270 269 269 269 268 270 270 269 268 269 269 270 269 269 270 271 272 272 275 277
283 284 285 286 286 286 285 285 286 285 283 281 279 279 280 280 280 280 278 275 274 272 273 274 273 272 272 271 270 270 271 271 270 270 269 268 269 269 270 271 272 272 274 277
285 287 287 287 287 287 286 286 285 283 282 281 279 279 280 279 277 277 276 276 275 274 275 275 275 274 274 273 271 271 272 273 272 271 270 270 271 271 270 270 272 272 274 276
286 288 288 287 287 288 288 286 284 284 284 282 280 279 278 278 277 275 274 274 272 273 275 274 274 275 277 277 276 274 274 273 271 270 270 270 270 270 269 269 270 271 271 274
286 287 287 287 287 287 287 286 284 284 283 282 281 280 278 277 276 275 274 273 271 271 272 271 272 275 278 279 278 278 277 276 274 272 271 271 271 270 269 268 267 268 270 273
285 285 285 284 285 285 284 285 284 283 281 280 280 279 278 276 276 276 275 273 271 272 274 274 274 276 277 275 275 277 278 277 275 274 273 272 272 271 269 267 267 266 268 271
Height
5602 5603 5604 5605 5607 5607 5608 5608 5609 5611 5612 5613 5611 5610 5609 5608 5608 5607 5607 5606 5606 5605 5605 5604 5603 5602 5600 5599 5598 5597 5595 5594 5593 5591 5590 5589 5588 5587 5586 5585 5584 5584 5583 5582
5594 5595 5595 5596 5598 5599 5600 5600 5601 5601 5603 5603 5601 5600 5599 5598 5598 5597 5597 5596 5596 5595 5595 5594 5592 5591 5590 5588 5587 5586 5584 5583 5581 5580 5579 5578 5577 5576 5575 5574 5573 5573 5572 5571
5586 5587 5586 5588 5591 5591 5591 5592 5592 5591 5594 5592 5591 5590 5589 5589 5588 5587 5587 5587 5586 5585 5584 5583 5582 5581 5580 5578 5576 5575 5574 5572 5571 5569 5568 5568 5567 5566 5565 5564 5563 5562 5561 5561
5577 5578 5578 5583 5582 5582 5582 5582 5582 5582 5582 5581 5581 5580 5579 5579 5578 5577 5577 5576 5576 5575 5574 5573 5572 5570 5569 5568 5566 5564 5563 5562 5560 5559 5558 5557 5556 5555 5554 5553 5552 5551 5551 5550
5568 5568 5569 5573 5573 5572 5572 5572 5572 5572 5571 5570 5570 5569 5569 5568 5567 5566 5566 5565 5565 5564 5563 5562 5561 5560 5558 5557 5555 5554 5553 5551 5550 5549 5548 5547 5546 5545 5543 5542 5541 5540 5540 5540
5560 5559 5561 5565 5563 5562 5562 5562 5562 5561 5560 5559 5559 5559 5559 5557 5556 5555 5555 5554 5554 5553 5552 5551 5550 5549 5547 5546 5545 5543 5542 5541 5539 5538 5537 5536 5535 5534 5533 5532 5531 5530 5530 5530
5551 5551 5552 5555 5553 5552 5553 5553 5552 5550 5549 5549 5548 5548 5547 5546 5545 5544 5543 5543 5542 5542 5541 5540 5539 5538 5536 5535 5534 5532 5531 5530 5529 5528 5526 5525 5524 5523 5522 5521 5520 5520 5519 5519
5543 5542 5546 5545 5544 5544 5543 5541 5541 5540 5539 5538 5537 5536 5536 5535 5534 5533 5532 5532 5531 5530 5530 5529 5528 5527 5525 5524 5523 5521 5520 5519 5518 5517 5516 5514 5513 5512 5511 5510 5510 5509 5509 5509
5535 5537 5536 5535 5534 5533 5532 5531 5530 5529 5528 5527 5526 5525 5525 5524 5523 5522 5521 5520 5520 5519 5519 5518 5517 5515 5514 5513 5511 5510 5509 5508 5507 5506 5505 5504 5503 5502 5500 5500 5499 5499 5498 5498
5524 5526 5526 5525 5524 5523 5522 5521 5519 5519 5518 5516 5515 5514 5514 5513 5512 5511 5510 5509 5508 5507 5507 5506 5505 5504 5503 5502 5501 5499 5498 5497 5497 5496 5495 5494 5493 5491 5491 5490 5489 5488 5488 5488
5514 5516 5515 5515 5514 5513 5512 5510 5509 5508 5507 5506 5504 5503 5502 5501 5500 5499 5498 5498 5497 5496 5495 5495 5494 5493 5492 5491 5490 5489 5488 5488 5487 5486 5485 5484 5483 5482 5481 5481 5480 5479 5478 5478
5506 5506 5505 5504 5503 5502 5501 5500 5499 5497 5496 5495 5493 5492 5491 5490 5489 5488 5487 5486 5486 5485 5485 5484 5483 5483 5482 5481 5480 5479 5479 5478 5477 5476 5476 5475 5474 5473 5472 5471 5470 5469 5469 5468
5496 5495 5494 5494 5493 5492 5490 5489 5488 5486 5485 5484 5482 5481 5480 5478 5478 5477 5476 5475 5475 5474 5474 5473 5473 5472 5472 5471 5470 5469 5469 5469 5468 5467 5466 5465 5465 5464 5463 5462 5461 5460 5460 5459
5486 5485 5485 5484 5483 5482 5480 5479 5477 5476 5474 5473 5471 5470 5469 5468 5467 5466 5465 5464 5464 5463 5463 5463 5462 5462 5462 5461 5460 5460 5460 5459 5459 5458 5457 5456 5456 5455 5454 5453 5453 5452 5451 5450
5477 5476 5475 5474 5473 5472 5470 5468 5467 5465 5464 5462 5461 5459 5458 5457 5456 5455 5454 5453 5453 5453 5453 5452 5452 5452 5451 5451 5451 5451 5450 5450 5449 5449 5449 5448 5447 5446 5446 5445 5444 5444 5443 5442
5467 5466 5465 5464 5463 5461 5460 5458 5456 5455 5453 5452 5450 5449 5447 5446 5445 5444 5444 5443 5443 5443 5443 5442 5442 5442 5442 5441 5441 5441 5441 5441 5440 5440 5440 5440 5439 5438 5438 5437 5436 5436 5435 5434
5458 5457 5456 5454 5452 5451 5449 5448 5446 5444 5443 5441 5440 5438 5437 5436 5435 5434 5434 5433 5433 5433 5432 5432 5432 5432 5432 5432 5432 5432 5432 5431 5431 5431 5431 5431 5430 5430 5429 5429 5428 5427 5427 5426
5448 5447 5446 5444 5442 5441 5439 5438 5436 5435 5433 5432 5430 5428 5427 5426 5425 5425 5424 5424 5423 5423 5423 5423 5423 5423 5423 5423 5423 5423 5423 5422 5422 5422 5422 5422 5422 5422 5421 5421 5420 5419 5419 5418
5439 5438 5436 5434 5433 5431 5430 5428 5427 5425 5424 5422 5421 5420 5418 5417 5416 5415 5415 5414 5414 5414 5414 5414 5414 5414 5414 5414 5414 5414 5414 5414 5414 5414 5414 5414 5414 5413 5413 5413 5412 5411 5411 5410
5430 5428 5427 5426 5424 5422 5421 5419 5418 5416 5415 5414 5413 5411 5410 5409 5408 5407 5406 5406 5406 5406 5406 5406 5406 5406 5406 5406 5406 5406 5406 5405 5405 5406 5406 5406 5405 5405 5405 5405 5404 5404 5403 5402
5421 5420 5418 5417 5416 5414 5413 5411 5409 5408 5407 5406 5405 5404 5402 5401 5400 5400 5399 5399 5398 5398 5398 5398 5398 5398 5398 5398 5398 5398 5397 5397 5397 5398 5398 5398 5398 5397 5397 5397 5396 5396 5395 5395
5413 5412 5410 5409 5408 5406 5405 5403 5402 5400 5399 5398 5397 5396 5395 5394 5394 5393 5392 5391 5391 5391 5391 5391 5390 5390 5390 5390 5390 5390 5390 5390 5390 5390 5390 5390 5389 5389 5389 5389 5389 5388 5388 5387
5405 5404 5403 5401 5400 5398 5397 5395 5394 5393 5391 5390 5390 5389 5388 5387 5387 5386 5386 5385 5384 5384 5384 5384 5383 5383 5383 5382 5382 5382 5382 5382 5382 5382 5382 5382 5382 5382 5382 5382 5381 5381 5381 5380
5398 5397 5395 5394 5392 5391 5389 5388 5387 5385 5384 5383 5383 5382 5381 5381 5380 5379 5379 5378 5378 5378 5377 5377 5376 5376 5375 5375 5375 5375 5375 5375 5374 5374 5375 5375 5375 5375 5375 5375 5374 5374 5374 5373
5391 5390 5388 5387 5385 5384 5382 5381 5380 5378 5378 5377 5376 5375 5375 5374 5374 5373 5372 5372 5372 5371 5371 5371 5370 5370 5369 5369 5369 5368 5368 5368 5367 5368 5368 5368 5368 5368 5368 5368 5368 5367 5367 5367
5384 5383 5381 5380 5378 5377 5376 5374 5373 5372 5371 5371 5370 5369 5369 5368 5367 5367 5366 5366 5366 5365 5365 5365 5365 5364 5364 5363 5363 5362 5361 5361 5361 5361 5361 5361 5361 5361 5361 5361 5361 5361 5361 5361
5377 5376 5374 5373 5372 5370 5369 5368 5367 5366 5365 5365 5364 5363 5363 5362 5362 5361 5360 5360 5360 5360 5360 5360 5359 5359 5358 5357 5357 5356 5356 5356 5355 5355 5355 5355 5355 5355 5355 5356 5356 5356 5356 5356